Location: Krakow
(50.0830°N, 19.9170°E)
Time: 05:29:18
(UTC+01:00)

SR - Pass Details

Date: 08 February 2023
Orbit: 582 x 867 km, 66.7° (Epoch: 20 March)

Event Time Altitude Azimuth Distance (km) Brightness Sun altitude
Rises 18:20:07 0° 321° (NW) 2,940 ? -15.5°
Maximum altitude 18:25:29 11° 14° (NNE) 1,901 ? -16.3°
Enters shadow 18:26:24 10° 26° (NNE) 1,928 ? -16.5°
Drops below altitude 10° 18:26:37 10° 29° (NNE) 1,945 - -16.5°
Sets 18:30:41 0° 68° (ENE) 2,816 - -17.1°
